| time (UTC) | temp C | wind direction | speed KPH | gust KPH | rain 1hr cm | rain 24hr cm | rain mn cm | humidity % | barometer mb |
| 20260510073042 | 10 | 330 | 6.4 | 12.9 | 0.00 | 0.41 | 0.00 | 95 | 1008.4 |
| 20260510071540 | 10 | 335 | 4.8 | 9.7 | 0.00 | 0.41 | 0.00 | 95 | 1008.8 |
| 20260510070041 | 10 | 337 | 4.8 | 9.7 | 0.00 | 0.41 | 0.00 | 95 | 1008.9 |
| 20260510064540 | 10 | 332 | 3.2 | 6.4 | 0.00 | 0.41 | 0.00 | 95 | 1009.3 |
| 20260510063040 | 10 | 339 | 3.2 | 8.0 | 0.00 | 0.41 | 0.00 | 94 | 1009.5 |
| 20260510061539 | 10 | 108 | 0.0 | 6.4 | 0.00 | 0.41 | 0.00 | 94 | 1009.3 |
| 20260510060047 | 10 | 321 | 0.0 | 4.8 | 0.00 | 0.41 | 0.00 | 94 | 1009.4 |
| 20260510054534 | 10 | 25 | 0.0 | 3.2 | 0.00 | 0.41 | 0.00 | 94 | 1009.1 |
| 20260510053033 | 10 | 297 | 0.0 | 3.2 | 0.00 | 0.41 | 0.00 | 95 | 1008.8 |
| 20260510051540 | 10 | 343 | 3.2 | 9.7 | 0.00 | 0.41 | 0.00 | 95 | 1008.7 |
| 20260510050031 | 10 | 360 | 3.2 | 9.7 | 0.00 | 0.41 | 0.00 | 95 | 1008.8 |
| 20260510044531 | 10 | 307 | 4.8 | 9.7 | 0.00 | 0.41 | 0.00 | 95 | 1009.0 |
| 20260510043030 | 10 | 89 | 0.0 | 3.2 | 0.00 | 0.41 | 0.00 | 95 | 1009.1 |
| 20260510041530 | 10 | 107 | 1.6 | 4.8 | 0.00 | 0.41 | 0.00 | 95 | 1008.8 |
| 20260510040026 | 10 | 115 | 1.6 | 6.4 | 0.00 | 0.41 | 0.00 | 95 | 1008.8 |
| 20260510034525 | 10 | 108 | 1.6 | 4.8 | 0.00 | 0.41 | 0.41 | 95 | 1008.8 |
| 20260510033025 | 10 | 89 | 0.0 | 4.8 | 0.00 | 0.41 | 0.41 | 95 | 1008.7 |
| 20260510031536 | 10 | 281 | 1.6 | 4.8 | 0.00 | 0.41 | 0.41 | 96 | 1008.7 |
| 20260510030024 | 10 | 42 | 0.0 | 6.4 | 0.00 | 0.41 | 0.41 | 96 | 1009.0 |
| 20260510024523 | 10 | 101 | 0.0 | 8.0 | 0.00 | 0.41 | 0.41 | 96 | 1009.0 |
| 20260510023036 | 10 | 338 | 1.6 | 6.4 | 0.00 | 0.41 | 0.41 | 97 | 1009.0 |
| 20260510021524 | 10 | 337 | 1.6 | 9.7 | 0.00 | 0.41 | 0.41 | 97 | 1008.8 |
| 20260510020019 | 10 | 71 | 0.0 | 3.2 | 0.00 | 0.41 | 0.41 | 97 | 1009.0 |
| 20260510014520 | 9 | 70 | 0.0 | 3.2 | 0.00 | 0.41 | 0.41 | 97 | 1008.9 |
| 20260510013018 | 9 | 71 | 0.0 | 3.2 | 0.00 | 0.41 | 0.41 | 97 | 1009.0 |
| 20260510011523 | 8 | 334 | 0.0 | 3.2 | 0.00 | 0.41 | 0.41 | 96 | 1009.0 |
| 20260510010023 | 8 | 129 | 0.0 | 0.0 | 0.00 | 0.41 | 0.41 | 96 | 1008.9 |
| 20260510004516 | 8 | 128 | 0.0 | 1.6 | 0.00 | 0.41 | 0.41 | 96 | 1009.3 |
| 20260510003016 | 8 | 133 | 0.0 | 3.2 | 0.00 | 0.41 | 0.41 | 96 | 1009.2 |
| 20260510001516 | 8 | 214 | 0.0 | 1.6 | 0.03 | 0.41 | 0.41 | 96 | 1009.0 |
| 20260510000015 | 8 | 216 | 0.0 | 3.2 | 0.03 | 0.41 | 0.41 | 96 | 1008.7 |
| 20260509234514 | 8 | 204 | 1.6 | 4.8 | 0.03 | 0.41 | 0.41 | 95 | 1008.7 |
| 20260509233013 | 9 | 136 | 0.0 | 3.2 | 0.03 | 0.41 | 0.41 | 95 | 1008.7 |
| 20260509231514 | 9 | 91 | 0.0 | 1.6 | 0.00 | 0.38 | 0.38 | 95 | 1008.4 |
| 20260509230013 | 9 | 91 | 0.0 | 1.6 | 0.00 | 0.38 | 0.38 | 95 | 1008.4 |
| 20260509224512 | 9 | 91 | 0.0 | 1.6 | 0.00 | 0.38 | 0.38 | 95 | 1008.4 |
| 20260509223011 | 9 | 86 | 1.6 | 4.8 | 0.00 | 0.38 | 0.38 | 94 | 1008.5 |
| 20260509221511 | 10 | 92 | 0.0 | 3.2 | 0.00 | 0.38 | 0.38 | 94 | 1008.4 |
| 20260509220010 | 10 | 76 | 0.0 | 6.4 | 0.00 | 0.38 | 0.38 | 95 | 1008.5 |
| 20260509214505 | 9 | 81 | 0.0 | 1.6 | 0.00 | 0.38 | 0.38 | 95 | 1008.7 |
| 20260509213001 | 8 | 82 | 0.0 | 6.4 | 0.00 | 0.38 | 0.38 | 95 | 1008.9 |
| 20260509211615 | 8 | 89 | 0.0 | 3.2 | 0.00 | 0.38 | 0.38 | 94 | 1009.1 |
| 20260509204603 | 8 | 93 | 0.0 | 0.0 | 0.00 | 0.38 | 0.38 | 94 | 1009.4 |
| 20260509203059 | 8 | 93 | 0.0 | 1.6 | 0.00 | 0.38 | 0.38 | 94 | 1009.6 |
| 20260509201555 | 8 | 94 | 0.0 | 1.6 | 0.00 | 0.38 | 0.38 | 94 | 1009.8 |
| 20260509200052 | 8 | 94 | 0.0 | 1.6 | 0.00 | 0.38 | 0.38 | 94 | 1010.0 |
| 20260509194550 | 8 | 94 | 0.0 | 1.6 | 0.00 | 0.38 | 0.38 | 94 | 1010.0 |
| 20260509193050 | 8 | 93 | 0.0 | 3.2 | 0.00 | 0.38 | 0.38 | 94 | 1010.0 |
| 20260509191548 | 8 | 90 | 0.0 | 3.2 | 0.00 | 0.38 | 0.38 | 93 | 1010.1 |
| 20260509190146 | 8 | 88 | 1.6 | 3.2 | 0.00 | 0.38 | 0.38 | 93 | 1010.3 |
| 20260509184547 | 8 | 67 | 0.0 | 4.8 | 0.00 | 0.38 | 0.38 | 93 | 1010.3 |
| 20260509183044 | 8 | 68 | 0.0 | 3.2 | 0.00 | 0.38 | 0.38 | 93 | 1010.4 |
| 20260509181540 | 8 | 72 | 1.6 | 4.8 | 0.00 | 0.38 | 0.38 | 93 | 1010.4 |
| 20260509180037 | 8 | 42 | 0.0 | 1.6 | 0.00 | 0.38 | 0.38 | 94 | 1010.5 |
| 20260509174535 | 8 | 340 | 1.6 | 4.8 | 0.05 | 0.38 | 0.38 | 93 | 1010.5 |
| 20260509173030 | 7 | 342 | 1.6 | 4.8 | 0.08 | 0.38 | 0.38 | 93 | 1010.7 |
| 20260509171528 | 7 | 81 | 0.0 | 4.8 | 0.13 | 0.38 | 0.38 | 93 | 1011.0 |
| 20260509170030 | 7 | 103 | 0.0 | 3.2 | 0.15 | 0.38 | 0.38 | 93 | 1011.2 |
| 20260509164524 | 7 | 318 | 0.0 | 0.0 | 0.15 | 0.33 | 0.33 | 92 | 1011.2 |
| 20260509163026 | 7 | 318 | 0.0 | 3.2 | 0.20 | 0.30 | 0.30 | 92 | 1011.5 |
| 20260509161521 | 7 | 62 | 0.0 | 4.8 | 0.20 | 0.25 | 0.25 | 92 | 1011.7 |
| 20260509160022 | 7 | 78 | 0.0 | 1.6 | 0.20 | 0.23 | 0.23 | 91 | 1011.8 |
| 20260509154517 | 7 | 79 | 0.0 | 1.6 | 0.18 | 0.18 | 0.18 | 90 | 1012.0 |
| 20260509153020 | 7 | 78 | 0.0 | 1.6 | 0.10 | 0.10 | 0.10 | 89 | 1012.2 |
| 20260509151514 | 7 | 79 | 0.0 | 3.2 | 0.05 | 0.05 | 0.05 | 87 | 1012.3 |
| 20260509150014 | 7 | 72 | 0.0 | 3.2 | 0.03 | 0.03 | 0.03 | 86 | 1012.3 |
| 20260509144512 | 7 | 65 | 0.0 | 3.2 | 0.00 | 0.00 | 0.00 | 84 | 1012.4 |
| 20260509143012 | 7 | 56 | 0.0 | 1.6 | 0.00 | 0.00 | 0.00 | 83 | 1012.3 |
| 20260509141512 | 7 | 69 | 0.0 | 8.0 | 0.00 | 0.00 | 0.00 | 82 | 1012.4 |
| 20260509140007 | 6 | 130 | 1.6 | 3.2 | 0.00 | 0.00 | 0.00 | 84 | 1012.3 |
| 20260509134503 | 6 | 131 | 0.0 | 1.6 | 0.00 | 0.00 | 0.00 | 83 | 1012.5 |
| 20260509133003 | 6 | 131 | 1.6 | 3.2 | 0.00 | 0.00 | 0.00 | 83 | 1012.5 |
| 20260509131501 | 6 | 130 | 0.0 | 0.0 | 0.00 | 0.00 | 0.00 | 84 | 1012.5 |
| 20260509124612 | 5 | 236 | 0.0 | 1.6 | 0.00 | 0.00 | 0.00 | 84 | 1012.4 |
| 20260509123058 | 5 | 238 | 1.6 | 3.2 | 0.00 | 0.00 | 0.00 | 84 | 1012.5 |
| 20260509121557 | 5 | 291 | 0.0 | 0.0 | 0.00 | 0.00 | 0.00 | 85 | 1012.7 |
| 20260509120056 | 5 | 291 | 0.0 | 0.0 | 0.00 | 0.00 | 0.00 | 85 | 1012.9 |
| 20260509114559 | 5 | 291 | 0.0 | 0.0 | 0.00 | 0.00 | 0.00 | 86 | 1013.0 |
| 20260509113052 | 4 | 291 | 0.0 | 1.6 | 0.00 | 0.00 | 0.00 | 88 | 1013.1 |
| 20260509111551 | 4 | 292 | 0.0 | 0.0 | 0.00 | 0.00 | 0.00 | 92 | 1012.8 |
| 20260509110054 | 3 | 292 | 0.0 | 0.0 | 0.00 | 0.00 | 0.00 | 94 | 1012.9 |
| 20260509104547 | 2 | 292 | 0.0 | 1.6 | 0.00 | 0.00 | 0.00 | 94 | 1013.0 |
| 20260509103046 | 2 | 292 | 1.6 | 3.2 | 0.00 | 0.00 | 0.00 | 95 | 1013.1 |
| 20260509101546 | 1 | 343 | 0.0 | 1.6 | 0.00 | 0.00 | 0.00 | 95 | 1013.0 |
| 20260509100100 | 1 | 343 | 0.0 | 1.6 | 0.00 | 0.00 | 0.00 | 94 | 1012.9 |
| 20260509094545 | 1 | 343 | 0.0 | 0.0 | 0.00 | 0.00 | 0.00 | 94 | 1012.8 |
| 20260509093045 | 1 | 343 | 0.0 | 1.6 | 0.00 | 0.00 | 0.00 | 94 | 1012.8 |
| 20260509091542 | 1 | 343 | 0.0 | 0.0 | 0.00 | 0.00 | 0.00 | 93 | 1012.9 |
| 20260509090041 | 1 | 343 | 0.0 | 3.2 | 0.00 | 0.00 | 0.00 | 93 | 1012.7 |
| 20260509084546 | 1 | 323 | 0.0 | 0.0 | 0.00 | 0.00 | 0.00 | 93 | 1012.6 |
| 20260509083039 | 1 | 310 | 0.0 | 1.6 | 0.00 | 0.00 | 0.00 | 93 | 1012.6 |
| 20260509081538 | 1 | 310 | 0.0 | 0.0 | 0.00 | 0.00 | 0.00 | 93 | 1012.6 |
| 20260509080054 | 1 | 310 | 0.0 | 0.0 | 0.00 | 0.00 | 0.00 | 93 | 1012.6 |
| 20260509074536 | 1 | 310 | 0.0 | 0.0 | 0.00 | 0.00 | 0.00 | 92 | 1012.5 |